Home > Weather > Olathe > Past weeks

Flag for USA Past Weather in Olathe, Kansas, USA — Yesterday and Last 2 Weeks

Now
79 °F

Partly sunny.


Feels Like: 82 °F
Forecast: 69 / 80 °F
Wind: 9 mph from Southeast

Location: Johnson County Executive Airport

Current Time: Aug 26, 2016 at 3:12:38 PM

Latest Report: Aug 26, 2016 at 1:53 PM


Visibility: 10 mi

Pressure: 30.04 "Hg

Humidity: 74%

Dew Point: 70 °F

Location of OlatheLocation

Past Weather in Olathe — Graph

°F

Olathe Temperature Yesterday

Maximum temperature yesterday: 82 °F (at 3:00 PM)
Minimum temperature yesterday: 68 °F (at 4:53 AM)
Average temperature yesterday: 75 °F

High & Low Weather Summary for the Past Weeks

 TemperatureHumidityPressure
High95 °F (Aug 11, 3:53 PM)100% (Aug 16, 6:57 AM)30.14 "Hg (Aug 16, 6:57 AM)
Low57 °F (Aug 21, 6:53 AM)29% (Aug 14, 4:53 PM)29.73 "Hg (Aug 19, 5:53 PM)
Average75 °F75%29.98 "Hg
* Reported Aug 11 1:53 PM — Aug 26 1:53 PM, Olathe, Weather by CustomWeather, © 2016

Note: Actual official high and low records may vary slightly from our data, if they occured in-between our weather recording intervals... More about our weather records

Advertising

Olathe Weather History for the Previous 24 Hours

Scroll right to see more
 ConditionsComfort  
Time TempWeatherWind HumidityBarometerVisibility
1:53 PM
Fri, Aug 26
79 °FPartly sunny.9 mph74%30.04 "Hg10 mi
12:53 PM78 °FScattered clouds.7 mph76%30.05 "Hg10 mi
11:53 AM76 °FPartly sunny.7 mph82%30.07 "Hg10 mi
10:53 AM73 °FPartly sunny.10 mph88%30.08 "Hg10 mi
9:53 AM71 °FPartly sunny.9 mph93%30.09 "Hg10 mi
8:53 AM70 °FScattered clouds.9 mph97%30.10 "Hg10 mi
7:54 AM68 °FScattered clouds.5 mph100%30.12 "Hg10 mi
6:53 AM67 °FPassing clouds.No wind100%30.08 "Hg10 mi
5:53 AM67 °FPassing clouds.No wind100%30.06 "Hg10 mi
4:53 AM67 °FLight rain. Passing clouds.5 mph100%30.06 "Hg10 mi
4:02 AM68 °FStrong thunderstorms. Fog.7 mph100%30.10 "Hg1 mi
2:53 AM70 °FThundershowers. Fog.6 mph90%30.05 "Hg3 mi
1:53 AM70 °FThundershowers. Fog.7 mph100%30.06 "Hg4 mi
1:02 AM71 °FThunderstorms. Fog.7 mph96%30.11 "Hg5 mi
12:53 AM72 °FThunderstorms. Mostly cloudy.12 mph93%30.05 "Hg10 mi
11:53 PM
Thu, Aug 25
72 °FMostly cloudy.12 mph93%30.06 "Hg10 mi
10:53 PM73 °FOvercast.9 mph90%30.06 "Hg10 mi
9:53 PM74 °FOvercast.12 mph88%30.06 "Hg10 mi
8:53 PM76 °FPartly sunny.10 mph82%30.03 "Hg10 mi
7:53 PM78 °FScattered clouds.8 mph76%30.02 "Hg10 mi
6:53 PM80 °FScattered clouds.9 mph74%29.99 "Hg10 mi
5:53 PM81 °FOvercast.5 mph69%30.00 "Hg10 mi
4:53 PM81 °FBroken clouds.3 mph72%30.00 "Hg10 mi
3:53 PM82 °FPartly sunny.3 mph67%30.01 "Hg10 mi
3:00 PM82 °FPassing clouds.6 mph67%30.06 "Hg10 mi
Weather by CustomWeather, © 2016

See weather overviewHow to use our weather pages